{"data":{"norad_id":43437,"epoch":"2026-09-20T03:29:32.929728Z","epoch_age_seconds":45325,"freshness":"FRESH","line1":"1 43437U 18039A   26263.14552002  .00000037  00000+0  33229-4 0  9992","line2":"2 43437  98.6272 329.3035 0001255  75.1152 285.0167 14.26738279437660","mean_motion":14.26738279,"eccentricity":0.0001255,"inclination_deg":98.6272,"raan_deg":329.3035,"arg_perigee_deg":75.1152,"mean_anomaly_deg":285.0167,"bstar":3.3229e-5,"rev_number":43766,"period_min":100.92951322574,"perigee_km":801.75301690762,"apogee_km":803.55539550038,"semimajor_km":7180.791206204,"source":"CELESTRAK","updated_at":"2026-09-20T09:00:33.972887Z"}}